Погода в Спутнике

Россия / Томская область     56°34′12″N   84°58′58″E
темп.,
°C
ветер,
м/с
пор.,
м/с
влажн.,
%
обл.,
%
осадки,
мм/ч
давл.,
гПа
погр.,
м
18 мая, ср
ср1801:00+16ю41071100 0.9 1004181
04:00+15зюз376715 0.3 1005145
07:00+16юз286559 0.3 1007273
10:00+21зюз5103661 0.0 10081854
13:00+24зюз610285 0.0 10092704
16:00+25з582480 0.0 10092903
19:00+24зсз462898 0.0 10092146
22:00+17ю0044100 0.0 101011
19 мая, чт
чт1901:00+16вюв1147100 0.0 101011
04:00+16в1148100 0.0 101020
07:00+16вюв2559100 0.0 1008136
10:00+21юв3543100 0.0 1007498
13:00+26юв483677 0.1 10031383
16:00+27юз91736100 0.3 9993157
19:00+21зсз6116215 1.1 10021168
22:00+17юз226317 0.1 100440
20 мая, пт
пт2001:00+16юз51063100 0.7 1006715
04:00+13зюз410570 0.2 1008414
07:00+13ююз513590 0.2 1010694
10:00+18юз715398 0.0 10102596
13:00+19юз7123398 0.0 10093137
16:00+21зюз8132565 0.0 10093413
19:00+20зюз611315 0.0 10102635
22:00+15юз411382 0.0 1011453
21 мая, сб
сб2101:00+11ююз384872 0.0 1011169
04:00+12ююз41250100 0.0 1011385
07:00+13юз4106292 0.0 1011540
10:00+15юз41063100 0.0 1012964
13:00+14ююз2673100 0.2 1011374
16:00+22зюз473922 0.0 10091411
19:00+26зюз163362 0.0 10071630
22:00+17вюв3765100 0.0 1007141
22 мая, вс
вс2201:00+15юв2267100 0.0 100734
04:00+14юв2368100 0.0 100550
07:00+17юв28625 0.0 1005196
10:00+25юв5834100 0.0 1003822
13:00+29ююв4623100 0.0 10012035
16:00+29ю452398 0.0 10012202
19:00+28ююз352981 0.0 10011034
22:00+20сз485540 0.0 1003211